Location: Bannatyne
(13.0833°N, 59.5333°W)
Time: 20:14:03
(UTC+00:00)

Explorer 7 - Pass Details

Date: 26 January 2020
Orbit: 485 x 679 km, 50.3° (Epoch: 26 February)

Event Time Altitude Azimuth Distance (km) Brightness Sun altitude
Rises 23:57:56 0° 218° (SW) 2,730 11.1 -29.3°
Reaches altitude 10° 00:00:14 10° 218° (SW) 1,802 10.0 -29.9°
Enters shadow 00:01:47 22° 218° (SW) 1,194 9.0 -30.2°
Maximum altitude 00:04:19 89° 307° (NW) 524 - -30.8°
Drops below altitude 10° 00:08:11 10° 38° (NE) 1,706 - -31.7°
Sets 00:10:19 0° 38° (NE) 2,570 - -32.2°
